Weather History for KLOU - December, 2012

Change the Weather History Date:

Tuesday, December 18, 2012

  Actual Average Record
Temperature  
Mean Temperature 45 °F 36 °F  
Max Temperature 50 °F 44 °F 64 °F (1967)
Min Temperature 39 °F 29 °F 5 °F (1963)
Degree Days  
Heating Degree Days 20 29  
Month to date heating degree days 277 478  
Since 1 July heating degree days 1212 1282  
Cooling Degree Days 0 0  
Month to date cooling degree days 3 0  
Year to date cooling degree days 1854 1444  
Moisture  
Dew Point 36 °F    
Average Humidity 71    
Maximum Humidity 86    
Minimum Humidity 56    
Precipitation  
Precipitation T in 0.12 in 2.15 in (1990)
Month to date precipitation 4.71 2.31  
Year to date precipitation 43.25 43.84  
Sea Level Pressure  
Sea Level Pressure 29.83 in    
Wind  
Wind Speed 9 mph (WSW)    
Max Wind Speed 20 mph    
Max Gust Speed 24 mph    
Visibility 10 miles    
Events Rain    
T = Trace of Precipitation, MM = Missing Value Source: NWS Daily Summary

Daily Weather History Graph

Daily Weather History Graph

Search for Another Location

Airport or City:

Trip Planner

Search our weather history database for the weather conditions in past years. The results will help you decide how hot, cold, wet, or windy it might be!

Date:

Astronomy

Dec. 18, 2012 Rise Set
Actual Time 7:54 AM EST 5:24 PM EST
Civil Twilight 7:24 AM EST 5:54 PM EST
Nautical Twilight 6:51 AM EST 6:27 PM EST
Astronomical Twilight 6:19 AM EST 6:59 PM EST
Moon 11:38 AM EST (12/18) 11:45 PM EST (12/18)
Length of Visible Light 10h 29m
Length of Day
9h 30m
Waxing Crescent, 34% of the Moon is Illuminated
Dec 18
Waxing Crescent
Dec 20
First Quarter
Dec 28
Full
Jan 4
Last Quarter
Jan 11
New

Hourly Weather History & Observations

Time (EST) Temp. Windchill Dew Point Humidity Pressure Visibility Wind Dir Wind Speed Gust Speed Precip Events Conditions
12:14 AM 46.4 °F 42.9 °F 44.6 °F 93% 29.68 in 8.0 mi WNW 6.9 mph - N/A   Overcast
12:53 AM 46.0 °F 40.6 °F 43.0 °F 89% 29.70 in 9.0 mi WNW 11.5 mph 21.9 mph 0.00 in   Overcast
1:53 AM 42.1 °F 34.9 °F 39.0 °F 89% 29.73 in 10.0 mi WNW 13.8 mph - 0.00 in Rain Light Rain
2:25 AM 41.0 °F 34.3 °F 37.4 °F 87% 29.75 in 10.0 mi West 11.5 mph 21.9 mph 0.00 in   Overcast
2:43 AM 41.0 °F 33.5 °F 37.4 °F 87% 29.76 in 10.0 mi West 13.8 mph 18.4 mph 0.00 in   Overcast
2:53 AM 41.0 °F 33.9 °F 37.9 °F 89% 29.77 in 10.0 mi WNW 12.7 mph 23.0 mph 0.00 in   Overcast
3:53 AM 41.0 °F 33.9 °F 37.9 °F 89% 29.79 in 10.0 mi West 12.7 mph - N/A   Overcast
4:53 AM 39.9 °F 33.4 °F 36.0 °F 86% 29.81 in 10.0 mi West 10.4 mph - N/A   Overcast
5:17 AM 39.2 °F 33.0 °F 35.6 °F 87% 29.82 in 10.0 mi West 9.2 mph - N/A   Overcast
5:53 AM 39.2 °F 34.2 °F 35.6 °F 87% 29.82 in 10.0 mi West 6.9 mph - N/A   Overcast
6:53 AM 39.9 °F 32.9 °F 35.1 °F 83% 29.87 in 10.0 mi West 11.5 mph - N/A   Overcast
7:32 AM 39.2 °F 33.6 °F 35.6 °F 87% 29.87 in 10.0 mi West 8.1 mph - N/A   Overcast
7:53 AM 39.0 °F 31.8 °F 35.1 °F 86% 29.88 in 10.0 mi West 11.5 mph - N/A   Overcast
8:18 AM 39.2 °F 33.6 °F 35.6 °F 87% 29.89 in 10.0 mi West 8.1 mph - N/A   Overcast
8:53 AM 39.9 °F 36.7 °F 35.1 °F 83% 29.89 in 10.0 mi WSW 4.6 mph - N/A   Overcast
9:53 AM 39.9 °F 35.1 °F 35.1 °F 83% 29.91 in 10.0 mi WSW 6.9 mph - N/A   Overcast
10:45 AM 39.2 °F 35.0 °F 35.6 °F 87% 29.93 in 10.0 mi SW 5.8 mph - N/A   Overcast
10:53 AM 39.9 °F 35.1 °F 36.0 °F 86% 29.94 in 10.0 mi SW 6.9 mph - N/A   Overcast
11:53 AM 41.0 °F 36.4 °F 35.1 °F 79% 29.91 in 10.0 mi SSW 6.9 mph - N/A   Overcast
12:53 PM 41.0 °F 35.2 °F 35.1 °F 79% 29.90 in 10.0 mi South 9.2 mph - N/A   Overcast
1:53 PM 41.0 °F 36.4 °F 35.1 °F 79% 29.91 in 10.0 mi Variable 6.9 mph - N/A   Overcast
2:38 PM 44.6 °F 40.2 °F 35.6 °F 71% 29.88 in 10.0 mi SSW 8.1 mph - N/A   Scattered Clouds
2:53 PM 45.0 °F 40.1 °F 36.0 °F 71% 29.88 in 10.0 mi South 9.2 mph - N/A   Clear
3:53 PM 46.9 °F - 36.0 °F 66% 29.85 in 10.0 mi SSE 9.2 mph - N/A   Clear
4:53 PM 48.0 °F - 36.0 °F 63% 29.81 in 10.0 mi SSE 9.2 mph - N/A   Clear
5:53 PM 46.9 °F - 37.0 °F 68% 29.80 in 10.0 mi South 6.9 mph - N/A   Clear
6:53 PM 46.9 °F - 36.0 °F 66% 29.79 in 10.0 mi South 8.1 mph - N/A   Clear
7:53 PM 46.9 °F - 35.1 °F 63% 29.80 in 10.0 mi South 9.2 mph - N/A   Clear
8:53 PM 48.0 °F - 35.1 °F 61% 29.78 in 10.0 mi South 8.1 mph - N/A   Clear
9:53 PM 48.0 °F - 34.0 °F 58% 29.83 in 10.0 mi SW 5.8 mph - N/A   Clear
10:53 PM 48.0 °F - 35.1 °F 61% 29.84 in 10.0 mi SW 4.6 mph - N/A   Clear
11:53 PM 50.0 °F - 35.1 °F 57% 29.86 in 10.0 mi SW 9.2 mph - N/A   Clear